• Processing (Info)

  • MPEC 2014-G07 : 2013 FZ27

    The following Minor Planet Electronic Circular may be linked-to from your own Web pages, but must not otherwise be redistributed electronically.

    A form allowing access to any MPEC is at the bottom of this page.


    Read MPEC 2014-G06 Read MPEC 2014-G08


    M.P.E.C. 2014-G07                                Issued 2014 Apr. 2, 15:18 UT
    
         The Minor Planet Electronic Circulars contain information on unusual
             minor planets and routine data on comets.  They are published
       on behalf of Commission 20 of the International Astronomical Union by the
              Minor Planet Center, Smithsonian Astrophysical Observatory,
                              Cambridge, MA 02138, U.S.A.
    
                 Prepared using the Tamkin Foundation Computer Network
    
                                  MPC@CFA.HARVARD.EDU
                URL http://www.minorplanetcenter.net/    ISSN 1523-6714
    
                                       2013 FZ27
    
    Observations:
         K13F27Z*.C2013 03 16.03362 10 18 29.761-01 43 55.94         21.0 rcEG007807
         K13F27Z .C2013 03 16.10813 10 18 29.495-01 43 53.90               cEG007807
         K13F27Z .C2013 03 16.17826 10 18 29.214-01 43 52.42               cEG007807
         K13F27Z .C2013 03 17.03265 10 18 26.100-01 43 31.19         20.9 rcEG007807
         K13F27Z  C2013 07 06.99773 10 17 58.589-01 20 50.06         21.0 rcEG007304
         K13F27Z  C2013 07 07.97482 10 18 01.994-01 21 00.84               cEG007304
         K13F27Z .C2014 03 24.00131 10 21 35.482-02 11 34.54               cEG007807
         K13F27Z .C2014 03 24.99677 10 21 32.076-02 11 09.42               cEG007807
         K13F27Z .C2014 03 26.00180 10 21 28.667-02 10 43.46               cEG007807
    
    Observer details:
    304 Las Campanas Observatory.  Observers S. S. Sheppard, C. Trujillo.  6.5-m
        Magellan-Baade telescope + CCD.
    807 Cerro Tololo.  Observers S. S. Sheppard, C. Trujillo.  4.0-m CTIO
        reflector + CCD.
    
    Orbital elements:
    2013 FZ27
    Epoch 2014 May 23.0 TT = JDT 2456800.5                  MPC
    M 309.97310              (2000.0)            P               Q
    n   0.00235945     Peri.  332.27748     -0.21146716     +0.94905281
    a  55.8807356      Node   284.73192     -0.84608683     -0.29741763
    e   0.4130641      Incl.   13.97897     -0.48930431     +0.10412259
    P 418              H    4.1           G   0.15           U   6
    Residuals in seconds of arc
    130316 807  0.0   0.0     130317 807  0.1-  0.0     140324 807  0.0   0.0
    130316 807  0.2+  0.2+    130706 304  0.3+  0.0     140324 807  0.1+  0.2-
    130316 807  0.1-  0.1-    130707 304  0.3-  0.0     140326 807  0.0   0.2+
    
    Ephemeris:
    2013 FZ27                a,e,i = 55.88, 0.41, 14                 q = 32.798
    Date    TT    R. A. (2000) Decl.     Delta      r     Elong.  Phase     V
    2014 03 03    10 22 54.7 -02 20 11  48.0975 49.0670   167.8     0.2    21.0
    ...
    2014 03 18    10 21 56.8 -02 14 07  48.1281 49.0514   157.9     0.4    21.1
    ...
    2014 03 26    10 21 28.7 -02 10 44  48.1705 49.0432   150.7     0.6    21.1
    ...
    2014 04 01    10 21 09.3 -02 08 12  48.2134 49.0370   145.2     0.7    21.1
    2014 04 02    10 21 06.2 -02 07 47  48.2215 49.0359   144.2     0.7    21.1
    2014 04 03    10 21 03.2 -02 07 21  48.2298 49.0349   143.3     0.7    21.1
    ...
    2014 04 09    10 20 46.2 -02 04 53  48.2844 49.0287   137.6     0.8    21.1
    ...
    2014 04 17    10 20 26.9 -02 01 43  48.3694 49.0204   130.0     0.9    21.1
    ...
    2014 05 02    10 20 01.7 -01 56 26  48.5599 49.0049   115.7     1.1    21.1
    
    A. U. Tomatic                (C) Copyright 2014 MPC           M.P.E.C. 2014-G07
    

    Read MPEC 2014-G06 Read MPEC 2014-G08


    MPEC number:

    Enter an MPEC number in one of the following forms:

    • 1997-B01 (the full form)
    • J97B01 (the packed version of the full form)
    • B01 (the abbreviated form)